STARLINK-32799, 62847

Orbit data source: Space-Track

STARLINK-32799, 62847 is a payload satellite owned by SpaceX/Seattle (US) in LEO that was launched on Mon, 27 Jan 2025 UTC via an FALCON 9 launch vehicle from the Air Force Eastern Test Range (AFETR). Payload-class satellites include a variety of spacecraft equipped with specific instruments for various scientific and technological missions. These include communications satellites like Starlink; space stations such as the ISS; scientific satellites like the Hubble; Earth observation satellites from companies like Planet Labs, Umbra, and HawkEye 360; GPS; miniature CubeSats for education and research; and military/defense satellites.

Loading next visibility...
Identifier
62847, 2025-019U
Orbit
LEO
Country
Flag of USUS
Related business
Manufacturer
SpaceX/Seattle
Mission
Operational Commercial Communications
Bus & Motor
STARLINK V2M, Unknown motor
Mass
730 kg wet, ~700 kg dry
Launch date (UTC)
2025-01-27 (9 months ago)
Launch vehicle
FALCON 9
Launch site
Air Force Eastern Test Range (AFETR)
Object type
Payload
Rocket body
Debris
Shape & HBR
Box + 2 Pan, 17.7 m
Radar Cross Section
33.884 m², Large (>1 m²)

Expand to show TLE details & history
Last TLE update: 1 day ago

TLE from 1 day ago
0 STARLINK-32799
1 62847U 25019U   25296.57928609  .00050999  00000-0  18477-2 0  9995
2 62847  42.9961 143.1290 0001355 186.4017 173.6818 15.27620729 41281
Epoch: 2025-10-23T13:54Z
TLE epoch observation values (Epoch: 2025-10-23T13:54:10.318Z)
Latitude
0.00003°
Longitude
-97.65047°
Altitude
483.626 km
Speed
7.625 km/s
True Right ascension
09h 32m 30s
True Declination
0° 00' 00"
Sunlit
Object was in daylight at epoch
Visualization orbit readout
Latitude
Unknown
Longitude
Unknown
Altitude
Unknown
Speed
Unknown
Apparent Right ascension
Unknown
Apparent Declination
Unknown
Sunlit
N/A
Visualization observer readout
Local Sidereal Time
11:58:28
Azimuth
Unknown
Elevation
Unknown
Doppler factor
Unknown
Orbital elements
Apogee altitude
485.803 km
Perigee altitude
483.943 km
Semi-major axis
6,863.01 km
Eccentricity
0.00014
Inclination
42.9961°
RAAN
143.129°
Arg. of periapsis
186.4017°
True anomaly
173.68351°
Mean anomaly
173.6818°
Eccentric anomaly
173.68265°
Mean motion
3.81743 °/min
Orbital period
94.3 mins
BSTAR
0.0018477
Loading maneuver chart data...
Computing Atmospheric mass density...
Loading historical data...
Loading historical data...
Loading historical data...
Loading historical data...
Loading historical data...
Loading historical data...
Loading historical data...

Documentation

Showing up to 5 results
|